Regional Weather Roundup
Issued by NWS

Home | Current Version | Previous Version | Text Only | Print | Product List | Glossary Off
Versions: 1 2 3 4 5 6 7 8 9 10 11 12 13 14 15 16 17 18 19 20 21 22 23 24 25 26 27 28 29 30 31 32 33 34 35 36 37 38 39 40 41 42 43 44 45 46 47 48 49 50

000
ASUS43 KOAX 280810
RWRNE

WEATHER ROUNDUP FOR NEBRASKA
NATIONAL WEATHER SERVICE OMAHA NE
200 AM CST SUN DEC 28 2014

NOTES: SATELLITE DATA IS BEING USED TO AUGMENT CLOUD COVER ABOVE
       12000 FEET.
       "FAIR" INDICATES FEW OR NO CLOUDS BELOW 12,000 FEET WITH NO
       SIGNIFICANT WEATHER AND/OR OBSTRUCTIONS TO VISIBILITY.

  * THESE STATIONS DO NOT REPORT WEATHER SUCH AS RAIN...SNOW OR FOG.

NEZ001>004-019>022-054>056-280900-
NEBRASKA PANHANDLE

CITY           SKY/WX    TMP DP  RH WIND       PRES   REMARKS
SCOTTSBLUFF    PTCLDY    -2  -6  83 N6        30.02F WCI -14
ALLIANCE       PTCLDY    -4  -8  83 W5        30.01F WCI -15
CHADRON        PTCLDY     2  -3  80 SW9       30.02F WCI -13
KIMBALL        PTCLDY     2  -5  72 CALM      29.98S
SIDNEY         MOCLDY    -7 -12  79 W8        30.03F WCI -23
$$

NEZ057>060-069>072-079>082-280900-
SOUTHWEST NEBRASKA

CITY           SKY/WX    TMP DP  RH WIND       PRES   REMARKS
NORTH PLATTE   PTCLDY     1  -2  87 NW8       30.10F WCI -13
IMPERIAL       MOCLDY     0  -4  83 CALM      30.09F
LEXINGTON      PTCLDY     2  -1  85 CALM      30.13S
MCCOOK         CLEAR      5   2  87 W6        30.14F WCI  -6
OGALLALA       CLEAR      2  -2  83 W8        30.08F WCI -12
$$

NEZ005>010-023>029-035>040-094-280900-
NORTH CENTRAL NEBRASKA

CITY           SKY/WX    TMP DP  RH WIND       PRES   REMARKS
VALENTINE      PTCLDY     1  -3  83 SW7       30.05F WCI -12
AINSWORTH      PTCLDY    10   4  78 W9        30.04S WCI  -4
BROKEN BOW     CLEAR     17   7  64 W13       30.08F WCI   4
O`NEILL        PTCLDY     9   6  90 SW6       30.06F WCI  -1
ORD            PTCLDY     6   5  95 CALM      30.09F
THEDFORD       PTCLDY    13   8  78 W5        30.05S WCI   5
$$

NEZ041-046>049-061>064-073>077-083>087-280900-
SOUTH CENTRAL NEBRASKA

CITY           SKY/WX    TMP DP  RH WIND       PRES   REMARKS
GRAND ISLAND     N/A     14   8  77 W9        30.14F WCI   2
AURORA         CLEAR     14  10  82 W9        30.13F WCI   2
HASTINGS       CLEAR     17  10  74 W9        30.13F WCI   6
HEBRON         CLEAR     17  13  82 CALM      30.20S
HOLDREGE       CLEAR     15  10  78 W10       30.13F WCI   3
KEARNEY *      FAIR      12   9  85 W5        30.13F WCI   4
YORK           CLEAR     12   9  85 SW7       30.15F WCI   2
$$

NEZ011>018-030>034-042>045-280900-
NORTHEAST NEBRASKA

CITY           SKY/WX    TMP DP  RH WIND       PRES   REMARKS
NORFOLK        PTCLDY     9   5  84 CALM      30.11S
ALBION         PTCLDY    14   8  76 NW7       30.11S WCI   4
BLAIR          CLEAR     19  15  82 SW8       30.14F WCI   9
COLUMBUS *     CLEAR     14   5  67 W6        30.15S WCI   5
FREMONT        CLEAR     18  14  83 SW3       30.16S
TEKAMAH        CLEAR     13   9  84 SE5       30.17F WCI   5
WAYNE          PTCLDY     9   6  87 S3        30.11F
$$

NEZ050>053-065>068-078-088>093-280900-
SOUTHEAST NEBRASKA

CITY           SKY/WX    TMP DP  RH WIND       PRES   REMARKS
LINCOLN        CLEAR     16  12  84 SW3       30.19F
OMAHA EPPLEY   CLEAR     19  14  81 S5        30.19F WCI  12
BEATRICE       CLEAR     16  13  85 SW8       30.19F WCI   6
FALLS CITY     CLEAR     19  15  84 SW8       30.22F WCI   9
NEBRASKA CITY  CLEAR     18  13  80 SW9       30.19S WCI   7
PLATTSMOUTH    CLEAR     18  13  82 S7        30.18S WCI   8
$$

NEZ044-045-051>053-067-280900-
OMAHA AREA

CITY           SKY/WX    TMP DP  RH WIND       PRES   REMARKS
OMAHA EPPLEY   CLEAR     19  14  81 S5        30.19F WCI  12
BLAIR          CLEAR     19  15  82 SW8       30.14F WCI   9
FREMONT        CLEAR     18  14  83 SW3       30.16S
MILLARD        CLEAR     20  15  82 CALM      30.18S
OFFUTT AFB     CLEAR     14  11  90 CALM      30.18F
PLATTSMOUTH    CLEAR     18  13  82 S7        30.18S WCI   8
WAHOO          FAIR      12   8  83 S3        30.16F
$$


USA.gov is the U.S. government's official web portal to all federal, state and local government web resources and services.